CW9197 Weather Reports


time (UTC)temp
C
wind
direction
speed
KPH
gust
KPH
rain 1hr
cm
rain 24hr
cm
rain mn
cm
humidity
%
barometer
mb
20260508141505 12 296 9.7 24.1 0.00 0.00 0.00 34 1026.7
20260508140504 12 296 8.0 19.3 0.00 0.00 0.00 34 1026.7
20260508135525 11 309 6.4 14.5 0.00 0.00 0.00 34 1026.7
20260508134504 12 3 9.7 19.3 0.00 0.00 0.00 33 1026.7
20260508133504 12 310 4.8 14.5 0.00 0.00 0.00 34 1026.6
20260508132503 12 12 8.0 16.1 0.00 0.00 0.00 34 1026.6
20260508131505 11 323 9.7 22.5 0.00 0.00 0.00 35 1026.6
20260508130505 11 348 8.0 17.7 0.00 0.00 0.00 36 1026.5
20260508125504 12 357 6.4 12.9 0.00 0.00 0.00 36 1026.5
20260508124503 12 284 8.0 19.3 0.00 0.00 0.00 38 1026.5
20260508123503 11 306 8.0 17.7 0.00 0.00 0.00 37 1026.6
20260508122505 12 343 6.4 20.9 0.00 0.00 0.00 37 1026.5
20260508121524 11 316 6.4 12.9 0.00 0.00 0.00 40 1026.5
20260508120504 11 350 6.4 17.7 0.00 0.00 0.00 38 1026.5
20260508115504 11 323 8.0 17.7 0.00 0.00 0.00 38 1026.5
20260508114503 12 316 4.8 12.9 0.00 0.00 0.00 38 1026.4
20260508113505 12 331 6.4 12.9 0.00 0.00 0.00 39 1026.3
20260508112524 11 315 8.0 25.7 0.00 0.00 0.00 39 1026.3
20260508111504 12 308 8.0 20.9 0.00 0.00 0.00 39 1026.3
20260508110503 12 329 4.8 9.7 0.00 0.00 0.00 39 1026.1
20260508105503 11 347 6.4 17.7 0.00 0.00 0.00 40 1026.1
20260508104504 11 328 8.0 17.7 0.00 0.00 0.00 40 1026.1
20260508103504 11 302 9.7 20.9 0.00 0.00 0.00 41 1026.0
20260508102504 11 5 6.4 17.7 0.00 0.00 0.00 41 1025.9
20260508101503 11 308 8.0 16.1 0.00 0.00 0.00 40 1025.8
20260508100503 12 275 4.8 11.3 0.00 0.00 0.00 44 1025.8
20260508095505 10 328 8.0 22.5 0.00 0.00 0.00 44 1025.8
20260508094505 10 353 6.4 16.1 0.00 0.00 0.00 46 1025.7
20260508093504 10 347 6.4 17.7 0.00 0.00 0.00 46 1025.8
20260508092504 10 306 6.4 14.5 0.00 0.00 0.00 51 1025.7
20260508091503 9 12 8.0 12.9 0.00 0.00 0.00 51 1025.7
20260508090504 9 309 8.0 17.7 0.00 0.00 0.00 52 1025.6
20260508085505 9 357 9.7 19.3 0.00 0.00 0.00 52 1025.5
20260508084504 9 301 8.0 25.7 0.00 0.00 0.00 52 1025.4
20260508083503 8 32 8.0 17.7 0.00 0.00 0.00 54 1025.4
20260508082503 9 356 6.4 16.1 0.00 0.00 0.00 54 1025.4
20260508081505 8 351 8.0 17.7 0.00 0.00 0.00 57 1025.4
20260508080504 8 7 8.0 17.7 0.00 0.00 0.00 56 1025.3
20260508075504 8 357 8.0 16.1 0.00 0.00 0.00 57 1025.2
20260508074503 8 332 8.0 14.5 0.00 0.00 0.00 58 1025.1
20260508073504 8 333 8.0 17.7 0.00 0.00 0.00 58 1024.9
20260508072504 8 316 9.7 22.5 0.00 0.00 0.00 59 1024.7
20260508071504 7 45 9.7 16.1 0.00 0.00 0.00 59 1024.6
20260508070524 8 2 9.7 25.7 0.00 0.00 0.00 58 1024.5
20260508065523 7 335 9.7 20.9 0.00 0.00 0.00 61 1024.4
20260508064506 7 357 8.0 17.7 0.00 0.00 0.00 64 1024.3
20260508063507 6 327 4.8 12.9 0.00 0.00 0.00 69 1024.2
20260508062504 7 296 9.7 19.3 0.00 0.00 0.00 65 1024.1
20260508061504 8 339 4.8 14.5 0.00 0.00 0.00 63 1023.9
20260508060504 6 32 8.0 19.3 0.00 0.00 0.00 66 1023.8
20260508055504 5 8 6.4 17.7 0.00 0.00 0.00 71 1023.7
20260508054503 5 323 8.0 20.9 0.00 0.00 0.00 73 1023.7
20260508053503 6 334 9.7 19.3 0.00 0.00 0.00 70 1023.5
20260508052505 6 352 6.4 12.9 0.00 0.00 0.00 73 1023.5
20260508051504 5 325 8.0 16.1 0.00 0.00 0.00 77 1023.3
20260508050523 4 319 6.4 19.3 0.00 0.00 0.00 80 1023.2
20260508045503 3 316 8.0 19.3 0.00 0.00 0.00 80 1023.1
20260508044503 3 309 8.0 22.5 0.00 0.00 0.00 81 1023.0
20260508043505 3 320 6.4 17.7 0.00 0.00 0.00 82 1022.7
20260508042504 3 308 6.4 17.7 0.00 0.00 0.00 82 1022.6
20260508041504 3 322 6.4 14.5 0.00 0.00 0.00 83 1022.5
20260508040503 3 296 6.4 14.5 0.00 0.00 0.00 84 1022.4
20260508035504 2 324 4.8 17.7 0.00 0.00 0.00 84 1022.2
20260508034504 2 290 6.4 14.5 0.00 0.00 0.00 84 1022.2
20260508033504 2 299 6.4 17.7 0.00 0.00 0.00 83 1022.0
20260508032504 3 315 6.4 11.3 0.00 0.00 0.00 82 1021.9
20260508031503 3 293 6.4 20.9 0.00 0.00 0.00 80 1021.7
20260508030505 2 284 8.0 17.7 0.00 0.00 0.00 82 1021.6
20260508025525 2 275 8.0 12.9 0.00 0.00 0.00 84 1021.5
20260508024505 1 284 6.4 12.9 0.00 0.00 0.00 86 1021.4
20260508023504 1 281 6.4 11.3 0.00 0.00 0.00 86 1021.4
20260508022503 1 281 4.8 9.7 0.00 0.00 0.00 85 1021.2
20260508021504 1 270 6.4 12.9 0.00 0.00 0.00 85 1021.1
20260508020504 1 300 4.8 11.3 0.00 0.00 0.00 85 1021.0
20260508015504 1 297 6.4 14.5 0.00 0.00 0.00 85 1020.8
20260508014504 1 274 8.0 14.5 0.00 0.00 0.00 85 1020.7
20260508013504 1 275 6.4 11.3 0.00 0.00 0.00 84 1020.6
20260508012505 1 275 6.4 12.9 0.00 0.00 0.00 84 1020.5
20260508011504 1 275 6.4 12.9 0.00 0.00 0.00 82 1020.5
20260508010504 1 275 6.4 11.3 0.00 0.00 0.00 82 1020.4
20260508005503 2 274 6.4 14.5 0.00 0.00 0.00 81 1020.4
20260508004505 2 268 6.4 14.5 0.00 0.00 0.00 81 1020.2
20260508003505 2 272 6.4 12.9 0.00 0.00 0.00 80 1020.1
20260508002505 2 269 6.4 12.9 0.00 0.00 0.00 79 1019.9
20260508001503 2 269 4.8 11.3 0.00 0.00 0.00 78 1019.9
20260508000503 2 271 4.8 9.7 0.00 0.00 0.00 77 1019.8
20260507235524 2 271 4.8 11.3 0.00 0.00 0.00 76 1019.7
20260507234524 2 291 6.4 11.3 0.00 0.00 0.00 76 1019.6
20260507233503 3 281 4.8 9.7 0.00 0.00 0.00 76 1019.5
20260507232503 3 275 4.8 9.7 0.00 0.00 0.00 75 1019.3
20260507231523 3 272 4.8 8.0 0.00 0.00 0.00 75 1019.2
20260507230504 3 264 3.2 8.0 0.00 0.00 0.00 73 1019.1
20260507225504 3 254 4.8 6.4 0.00 0.00 0.00 72 1018.9
20260507224504 3 277 4.8 8.0 0.00 0.00 0.00 71 1018.9
20260507223503 4 277 3.2 6.4 0.00 0.00 0.00 70 1018.8
20260507222523 4 268 4.8 8.0 0.00 0.00 0.00 68 1018.7
20260507221505 5 296 3.2 4.8 0.00 0.00 0.00 67 1018.6
20260507220504 5 302 4.8 9.7 0.00 0.00 0.00 67 1018.5
20260507215504 5 285 3.2 6.4 0.00 0.00 0.00 66 1018.4
20260507214525 5 307 3.2 11.3 0.00 0.00 0.00 65 1018.3
20260507213504 5 340 4.8 9.7 0.00 0.00 0.00 64 1018.1
20260507212503 5 357 3.2 6.4 0.00 0.00 0.00 62 1018.1
20260507211503 5 353 3.2 8.0 0.00 0.00 0.00 60 1018.0
20260507210505 5 342 3.2 9.7 0.00 0.00 0.00 59 1017.9
20260507205504 6 332 3.2 9.7 0.00 0.00 0.00 58 1017.9
20260507204504 6 345 4.8 16.1 0.00 0.00 0.00 56 1017.7
20260507203503 6 326 4.8 16.1 0.00 0.00 0.00 53 1017.8
20260507202505 6 308 8.0 14.5 0.00 0.00 0.00 49 1017.7
20260507201504 6 330 4.8 11.3 0.00 0.00 0.00 45 1017.4
20260507200504 7 315 4.8 11.3 0.00 0.00 0.00 43 1017.1
20260507195504 7 297 6.4 12.9 0.00 0.00 0.00 40 1017.0
20260507194503 8 315 6.4 16.1 0.00 0.00 0.00 36 1016.7
20260507193505 8 293 6.4 16.1 0.00 0.00 0.00 34 1016.6
20260507192505 7 270 3.2 8.0 0.00 0.00 0.00 45 1016.5
20260507191524 8 241 1.6 3.2 0.00 0.00 0.00 43 1016.3
20260507190504 8 268 1.6 1.6 0.00 0.00 0.00 42 1016.2
20260507185503 9 271 1.6 1.6 0.00 0.00 0.00 39 1016.2
20260507184504 9 169 1.6 3.2 0.00 0.00 0.00 37 1016.1
20260507183524 9 182 3.2 4.8 0.00 0.00 0.00 38 1016.1
20260507182504 9 92 1.6 3.2 0.00 0.00 0.00 40 1016.1
20260507181503 10 353 1.6 1.6 0.00 0.00 0.00 40 1016.1
20260507180505 10 353 1.6 3.2 0.00 0.00 0.00 41 1016.1
20260507175504 10 89 1.6 3.2 0.00 0.00 0.00 40 1016.0
20260507174524 10 56 1.6 3.2 0.00 0.00 0.00 38 1016.0
20260507173504 11 51 1.6 4.8 0.00 0.00 0.00 37 1015.9
20260507172503 11 58 3.2 6.4 0.00 0.00 0.00 36 1015.8
20260507171525 11 59 4.8 8.0 0.00 0.00 0.00 35 1015.8
20260507170504 11 71 4.8 6.4 0.00 0.00 0.00 35 1015.7
20260507165504 11 62 3.2 6.4 0.00 0.00 0.00 35 1015.7
20260507164503 11 62 4.8 9.7 0.00 0.00 0.00 34 1015.6
20260507163503 11 69 3.2 4.8 0.00 0.00 0.00 34 1015.7
20260507162505 11 72 3.2 4.8 0.00 0.00 0.00 35 1015.6
20260507161504 11 23 1.6 3.2 0.00 0.00 0.00 34 1015.6
20260507160504 11 320 0.0 1.6 0.00 0.00 0.00 35 1015.6
20260507155504 11 281 1.6 1.6 0.00 0.00 0.00 33 1015.6
20260507154503 11 316 1.6 3.2 0.00 0.00 0.00 32 1015.6
20260507153524 11 10 1.6 4.8 0.00 0.00 0.00 30 1015.6
20260507152524 12 15 4.8 9.7 0.00 0.00 0.00 31 1015.6
20260507151504 11 333 3.2 6.4 0.00 0.00 0.00 31 1015.6
20260507150503 12 290 3.2 8.0 0.00 0.00 0.00 31 1015.6
20260507145503 12 264 6.4 19.3 0.00 0.00 0.00 29 1015.7
20260507144504 13 341 4.8 8.0 0.00 0.00 0.00 29 1015.7
20260507143504 12 18 4.8 11.3 0.00 0.00 0.00 28 1015.7
20260507142504 12 53 3.2 8.0 0.00 0.00 0.00 28 1015.7